Погода в Ковде

Погода в Ковде : погода сейчас, прогноз погоды и архив. Всё, что Вы хотите узнать о погоде в Ковде!

Поиск расширенной информации на нашем сайте:

Другие новости

Новости СМИ2

Главная страница сайта

Новости сайта

02.10.2013

Напоминаем, что на нашем новом сайте вы можете получить высокодетализированные прогнозы погоды по пунктам России, СНГ и мира (включающие важные для авиации метеовеличины, такие как направление и скорость ветра, видимость, явления погоды, количество и форма облачности, нижняя и верхняя граница облачности), а также ознакомиться с разнообразными материалами по авиационной метеорологии и подборкой полезных ссылок на эту тему.

Сайт Метеоцентр.Азия посвящён разработке технологий оптимизации авиаметеорологического обслуживания, включая проектирование и перспективное создание нескольких автоматизированных авиаметеорологических систем:
- система выпуска высокодетальных прогностических карт явлений погоды для нижнего воздушного пространства по России и ближнему зарубежью;
- система верификации прогнозов TAF (выпускаемых синоптиками официальных АМСГ РФ и ближнего зарубежья) и AUTOTAF (выпускаемых сайтом Метеоцентр.Азия) - выявление ошибок, онлайн-сопоставление с фактической погодой METAR, автоматическое внесение коррективов в прогнозы при резком отклонении фактической погоды от прогноза, подсчёт оправдываемости прогнозов по элементам и в целом;
- система обработки, анализа и отображения авиаметеорологической информации для применения провайдерами метеорологической информации.

Рекомендуем: Организации National University of Ireland.

Погода в Ковде - сегодня

Время (UTC), дата Ветер
(°,м/с) 
Видим.   Явления Облачность Т
(°С)
Тd
(°С)
f(%) Тe
(°С)
Pmin
(гПа)
dP
(гПа)
Po
(мм)
O2
(г/м3)
Тmin Tmax R s Состояние
почвы
03 18.01.17 260 (З) 2-5  н/о    н/о 
-3.4 -4.6 91 -5  1010.5  -1.4  756  309  -9.4         
06 18.01.17 270 (З) 2-5  50000 м    ясно 
-4.5 -6 89 -6  1012.1  1.5  757  311  -7.9    0.7  45  неравномерный
сухой снег
100% 
09 18.01.17 260 (З) 1-3  20000 м    4/0 верхняя 
[Cc]
-5.9 -7.6 88 -6  1012.7  0.6  758  313           
12 18.01.17 220 (ЮЗ) 2-3  20000 м    4/0 средняя, верхняя 
[Ac lent|Cc]
-7.8 -9.1 90 -9  1012.2  -0.5  757  315           
15 18.01.17 190 (Ю) 2-3  50000 м    3/0 верхняя 
[Ci fib]
-8.4 -9.7 90 -10  1010  -2.2  756  315      0.7     
18 18.01.17 170 (Ю) 2-5  18000 м  слаб. ливневой снег  10/10 300 м кучево-дожд. 
[Cb cap]
-5.5 -6.7 91 -7  1004.1  -5.8  751  310    -4.4  0.2     
21 18.01.17 190 (Ю) 4-8{10}  н/о    н/о 
-1.4 -2.3 94 -4  995.2  -8.8  745  302           
00 19.01.17 210 (ЮЗ) 3-7{10}  н/о    н/о 
+1 +0.3 95 -1  988.4  -6.7  740  297           
03 19.01.17 260 (З) 3-8{10}  н/о    н/о 
+2.7 +1.2 90 +1  984.9  -3.5  737  294  -9         
06 19.01.17 310 (СЗ) 9-14{21}  50000 м    1/1 600 м 
[Sc]
-0.2 -4.3 74 -5  991.6  6.7  742  300  -5.5    43  неравномерный
мокрый или
старый снег
100% 
09 19.01.17 240 (ЮЗ) 1-7{12}  20000 м    ясно 
-2 -5.3 78 -1  992.3  0.7  743  302           
12 19.01.17 190 (Ю) 2-4{10}  20000 м  слаб. ливневой снег  10/10 300 м кучево-дожд. 
[Cb cap]
-2.3 -4.4 85 -3  987.2  -5.1  739  301           
15 19.01.17 280 (З) 2-5  50000 м  {ливн. осадки}  9/9 600 м 
[Sc]
-0.3 -2 88 -1  982.7  -4.4  735  297         
18 19.01.17 290 (З) 5-12{16}  30000 м  позёмок{ливн. осадки}  9/9 600 м 
[Sc]
-1.4 -6 71 -5  984.7  737  299    +0.3     
21 19.01.17 300 (СЗ) 6-11{15}  н/о    н/о 
-3.1 -8.7 65 -7  989.6  4.8  741  303           
00 20.01.17 320 (СЗ) 7-14{17}  н/о    н/о 
-3.6 -11.1 56 -8  994.7  5.1  744  305           
03 20.01.17 290 (З) 5-10{14}  н/о    н/о 
-6.5 -12.5 62 -11  997.4  2.7  746  309  -6.5         
06 20.01.17 280 (З) 3-7{12}  50000 м  позёмок  ясно 
-8.1 -13.1 67 -11  997.8  0.3  747  311  -8.1      41  неравномерный
мокрый или
старый снег
100% 
09 20.01.17 250 (З) 2-6  20000 м    1/0 средняя 
[Ac lent]
-8.5 -13.6 67 -10  997  -0.8  746  311           
12 20.01.17 260 (З) 1-3  20000 м    4/4 600 м 
[Sc]
-8.2 -12.6 71 -8  996.1  -0.9  745  311           
15 20.01.17 280 (З) 4-10{12}  50000 м  позёмок  ясно 
-7.3 -11.5 72 -11  995.6  -0.5  745  309           
18 20.01.17 280 (З) 4-9{11}  50000 м  позёмок  ясно 
-7.5 -11.7 72 -11  996.3  0.7  746  310    -6.9       
21 20.01.17 280 (З) 3-9{10}  н/о    н/о 
-7.8 -12.3 70 -11  996.7  0.4  746  310           
00 21.01.17 270 (З) 2-5{10}  н/о    н/о 
-7.4 -12 70 -9  997.4  0.7  746  310           
03 21.01.17 270 (З) 2-6  н/о    н/о 
-7.7 -11.9 72 -9  998.8  1.4  747  311  -8.4         
Время (UTC), дата Ветер
(°,м/с) 
Видим.   Явления Облачность Т
(°С)
Тd
(°С)
f(%) Тe
(°С)
Pmin
(гПа)
dP
(гПа)
Po
(мм)
O2
(г/м3)
Тmin Tmax R s Состояние
почвы

Для получения пояснительной информации подведите курсор к названию столбца.

ПОГОДА в Ковде - архив

Всё, что Вы хотите узнать о погоде в Ковде - удобно и подробно!

Выберите нужную дату (начиная с 1 января 2015* года) и нажмите кнопку "Найти".
Будут отображены архивные сводки погоды по пункту Ковда, начиная с указанной даты.


Отображать данные в формате CSV (для использования в таблицах Excel)


Внимание! Наш архив погоды предназначен исключительно для личного некоммерческого использования в познавательных целях. Если Вам необходимы официальные справки о состоянии погоды (для производственных, юридических, коммерческих и т.п. целей), обращайтесь в органы Росгидромета.

*Примечание: данная дата относится к архиву по метеостанциям СССР (Россия, СНГ, Балтия).
Архив по метеостанциям Зарубежной Европы и Азии (кроме Китая) хранится 10 дней, по другим регионам земного шара (Китай, Африка, Америка, Австралия, Океания) - 1 день.

Ковда - район местоположения метеостанции


Название, широта, долгота, высота метеостанции:
Ковда 66.7°ш. 32.9°д. 18 м над ур. моря [Российская Федерация]

Дополнительная информация

В oтличие oт бoльшинства пoгoдных сайтoв мы публикуем пoдрoбную метеoинфoрмацию в детальнoм прoфессиoнальнoм фoрмате.

Характеристики температуры и влажнoсти вoздуха измеряются на высoте 2 м в тени вдали oт зданий и деревьев.
Скoрoсть ветра измеряется на высoте 10 м (на урoвне рoста челoвека скoрoсть ветра ниже в 1.5-2 раза). Если метеoстанция нахoдится в гoрoде или в лесу, тo скoрoсть ветра занижена на 2-4 м/с пo сравнению с oткрытым местoм. Скoрoсть ветра над акватoриями крупных рек и oзёр, а также на вершинах хoлмoв на 2-5 м/с выше, чем в oбычных услoвиях.
Атмoсфернoе давление в разных тoчках местнoсти мoжет значительнo oтличаться oт давления на метеoстанции, в зависимoсти oт услoвий рельефа (при пoдъёме на 10 м давление пoнижается примернo на 1 мм рт.ст.).